Regional Weather Roundup
Issued by NWS

Home | Current Version | Previous Version | Text Only | Print | Product List | Glossary Off
Versions: 1 2 3 4 5 6 7 8 9 10 11 12 13 14 15 16 17 18 19 20 21 22 23 24 25 26 27 28 29 30 31 32 33 34 35 36 37 38 39

000
ASUS45 KBOU 280107
RWRCO

WEATHER ROUNDUP FOR COLORADO
NATIONAL WEATHER SERVICE DENVER/BOULDER CO
600 PM MST SAT DEC 27 2014

NOTE: "FAIR" INDICATES FEW OR NO CLOUDS BELOW 12000 FEET WITH NO
SIGNIFICANT WEATHER AND/OR OBSTRUCTIONS TO VISIBILITY.

COZ001>005-013-030-031-280200-
...NORTHWEST COLORADO...

CITY           SKY/WX    TMP DP  RH WIND       PRES   REMARKS
CRAIG          MOCLDY     4  -1  80 CALM      30.23R
HAYDEN         PTCLDY     7   1  78 E5        30.20S WCI  -2
MEEKER         PTCLDY     3  -2  79 E3        30.23R
MOUNT WERNER   NOT AVBL
STEAMBOAT SPGS PTCLDY     8   3  80 CALM      30.20R
WALDEN         PTCLDY     9  -2  61 S13       30.08S WCI  -7
$$

COZ006>008-011-280200-
...WEST CENTRAL VALLEYS...

CITY           SKY/WX    TMP DP  RH WIND       PRES   REMARKS
GRAND JUNCTION PTCLDY    20  12  71 N7        30.30R WCI  11
MONTROSE       PTCLDY    21  12  68 S5        30.29R WCI  15
EAGLE          NOT AVBL
RIFLE          CLOUDY    15   7  70 S5        30.29R WCI   8
DELTA          PTCLDY    26  11  54 NE3       30.31R
NUCLA          PTCLDY    25   9  50 CALM      30.29S
$$

COZ017>023-064>068-280200-
...SOUTHWEST COLORADO...

CITY           SKY/WX    TMP DP  RH WIND       PRES   REMARKS
DURANGO        PTCLDY    18  11  74 S5        30.22R WCI  11
CORTEZ         CLEAR     22   8  55 CALM      30.25R
PAGOSA SPRINGS PTCLDY    15  13  95 CALM      30.19R
TELLURIDE      NOT AVBL
WOLF CREEK PAS NOT AVBL
$$

COZ009-010-012-014-032>034-037-058>063-280200-
...CENTRAL COLORADO...

CITY           SKY/WX    TMP DP  RH WIND       PRES   REMARKS
ASPEN          CLOUDY     8   0  69 SW6       30.17R WCI  -2
BUENA VISTA    PTCLDY    15   0  51 NW15      30.08R WCI   0
COPPER MTN     MOCLDY     1  -6  71 W14       29.98R WCI -17
BERTHOUD PASS  CLOUDY    -8 -15  71 MISG      29.90R
COTTONWOOD PAS PTCLDY    14   0  52 NW14G32   30.00S WCI  -1
GUNNISON       PTCLDY     1  -8  66 CALM      30.22R
KREMMLING      PTCLDY     5   1  85 S3        30.19R
LEADVILLE      PTCLDY    -2  -6  83 N9        30.05R WCI -18
SALIDA         PTCLDY    17   2  53 W10       30.17R WCI   4
SUNLIGHT       CLOUDY   N/A N/A N/A CALM      30.08R
WILKERSON PASS MOCLDY     5  -6  61 W12G17    29.95S WCI -11
$$

COZ069>075-280200-
...SAN LUIS VALLEY/SANGRE DE CRISTO MOUNTAINS...

CITY           SKY/WX    TMP DP  RH WIND       PRES   REMARKS
ALAMOSA        MOCLDY     9   2  73 N5        30.14R WCI   1
LA VETA PASS   NOT AVBL
SAGUACHE       PTCLDY    -4  -8  84 N8        30.17R WCI -19
$$

COZ035-036-038>040-280200-
...NORTHERN COLORADO FRONT RANGE...

CITY           SKY/WX    TMP DP  RH WIND       PRES   REMARKS
DENVER INTL AP MOCLDY    16   9  74 S12       30.04S WCI   3
DMNS CITY PARK   N/A     26  12  55 S2        30.05S
AURORA         MOCLDY    17   8  68 S9        30.04F WCI   6
FRONT RANGE AP PTCLDY    19  12  73 S12       30.05R WCI   7
ERIE MUNI ARPT   N/A     15  11  86 N3        30.07R
BOULDER MUN AP PTCLDY    19  12  73 N5        30.06R WCI  13
CENTENNIAL     MOCLDY    18  10  71 S7        30.03S WCI   9
BROOMFIELD     PTCLDY    25   7  46 CALM      30.04S
FORT COLLINS   CLOUDY    12   7  79 N5        30.08S WCI   4
LONGMONT       CLOUDY    16  11  82 N5        30.09S WCI   9
$$

COZ041-046-047-076>085-087-088-280200-
...PIKES PEAK/PALMER DIVIDE AND SOUTHERN FOOTHILLS...

CITY           SKY/WX    TMP DP  RH WIND       PRES   REMARKS
COLO. SPRINGS  PTCLDY    18   6  59 SE7       30.08R WCI   9
A. F. ACADEMY  PTCLDY    18   6  60 SE8       30.05R WCI   7
ELLICOTT       NOT AVBL
FALCON         CLEAR     14   6  69 SW5       30.06R WCI   7
FORT CARSON    PTCLDY    19   8  62 S2        30.08R
LIMON          CLEAR     11   6  81 CALM      30.10R
MONUMENT HILL  CLEAR     12   3  67 S8        30.02R WCI   1
TRINIDAD       PTCLDY    10   5  80 NW9       30.09R WCI  -3
$$

COZ042>045-048>051-090-091-280200-
...NORTHEAST COLORADO...

CITY           SKY/WX    TMP DP  RH WIND       PRES   REMARKS
GREELEY ARPT   CLOUDY     3  -6  66 N6        30.08S WCI  -8
AKRON          PTCLDY    15   7  70 S12       30.09S WCI   2
BURLINGTON     PTCLDY    12   4  70 S8        30.15S WCI   0
WRAY           CLEAR     17  10  75 SW6       30.15S WCI   9
STERLING       PTCLDY     5   3  92 SW3       30.13S
HOLYOKE        CLEAR      9   3  78 W10       30.14S WCI  -6
FORT MORGAN    PTCLDY    13   8  79 CALM      30.10S
$$

COZ086-089-092>099-280200-
...SOUTHEAST COLORADO...

CITY           SKY/WX    TMP DP  RH WIND       PRES   REMARKS
PUEBLO         CLEAR     20  12  71 E7        30.11S WCI  11
LA JUNTA       CLEAR     24  15  68 SE5       30.15R WCI  18
LAMAR          CLEAR     13  11  92 CALM      30.17S
SPRINGFIELD      N/A     19  12  74 CALM      30.15S
$$


USA.gov is the U.S. government's official web portal to all federal, state and local government web resources and services.